| time (UTC) | temp F | wind direction | speed knots | gust knots | rain 1hr in | rain 24hr in | rain mn in | humidity % | barometer mb |
| 20260905184224 | 96 | 181 | 2.6 | 10.4 | 0.00 | 0.00 | 0.00 | 44 | 1010.5 |
| 20260905183222 | 96 | 205 | 2.6 | 8.7 | 0.00 | 0.00 | 0.00 | 43 | 1010.8 |
| 20260905182203 | 95 | 286 | 2.6 | 7.8 | 0.00 | 0.00 | 0.00 | 45 | 1010.9 |
| 20260905181138 | 95 | 167 | 1.7 | 11.3 | 0.00 | 0.00 | 0.00 | 47 | 1011.2 |
| 20260905180143 | 95 | 198 | 3.5 | 11.3 | 0.00 | 0.00 | 0.00 | 46 | 1011.3 |
| 20260905175201 | 95 | 202 | 2.6 | 10.4 | 0.00 | 0.00 | 0.00 | 48 | 1011.5 |
| 20260905173106 | 93 | 134 | 1.7 | 9.6 | 0.00 | 0.00 | 0.00 | 52 | 1011.7 |
| 20260905172055 | 93 | 211 | 2.6 | 7.8 | 0.00 | 0.00 | 0.00 | 53 | 1011.9 |
| 20260905171100 | 93 | 159 | 2.6 | 7.8 | 0.00 | 0.00 | 0.00 | 50 | 1011.9 |
| 20260905170033 | 93 | 97 | 2.6 | 9.6 | 0.00 | 0.00 | 0.00 | 52 | 1012.0 |
| 20260905163916 | 91 | 221 | 1.7 | 8.7 | 0.00 | 0.00 | 0.00 | 55 | 1012.1 |
| 20260905162906 | 90 | 212 | 2.6 | 7.0 | 0.00 | 0.00 | 0.00 | 59 | 1012.2 |
| 20260905161858 | 90 | 153 | 0.9 | 5.2 | 0.00 | 0.00 | 0.00 | 58 | 1012.2 |
| 20260905160913 | 89 | 205 | 0.9 | 6.1 | 0.00 | 0.00 | 0.00 | 64 | 1012.2 |
| 20260905155915 | 88 | 250 | 0.9 | 6.1 | 0.00 | 0.00 | 0.00 | 65 | 1012.2 |
| 20260905154842 | 88 | 239 | 0.9 | 4.3 | 0.00 | 0.00 | 0.00 | 66 | 1012.2 |
| 20260905153853 | 87 | 244 | 0.9 | 4.3 | 0.00 | 0.00 | 0.00 | 69 | 1012.2 |
| 20260905152846 | 86 | 163 | 1.7 | 8.7 | 0.00 | 0.00 | 0.00 | 70 | 1012.1 |
| 20260905151840 | 86 | 205 | 2.6 | 8.7 | 0.00 | 0.00 | 0.00 | 71 | 1012.1 |
| 20260905150815 | 86 | 186 | 1.7 | 6.1 | 0.00 | 0.00 | 0.00 | 74 | 1012.2 |
| 20260905145756 | 85 | 226 | 1.7 | 8.7 | 0.00 | 0.00 | 0.00 | 76 | 1012.2 |
| 20260905144820 | 84 | 216 | 1.7 | 8.7 | 0.00 | 0.00 | 0.00 | 78 | 1012.1 |
| 20260905143825 | 83 | 211 | 1.7 | 7.0 | 0.00 | 0.00 | 0.00 | 81 | 1012.0 |
| 20260905141701 | 81 | 178 | 0.9 | 6.1 | 0.00 | 0.00 | 0.00 | 85 | 1012.0 |
| 20260905140654 | 81 | 175 | 1.7 | 5.2 | 0.00 | 0.00 | 0.00 | 86 | 1012.0 |
| 20260905135638 | 80 | 198 | 1.7 | 5.2 | 0.00 | 0.00 | 0.00 | 90 | 1011.8 |
| 20260905133531 | 78 | 181 | 0.9 | 4.3 | 0.00 | 0.00 | 0.00 | 92 | 1011.8 |
| 20260905132458 | 78 | 208 | 0.9 | 4.3 | 0.00 | 0.00 | 0.00 | 92 | 1011.7 |
| 20260905131507 | 78 | 173 | 0.9 | 3.5 | 0.00 | 0.00 | 0.00 | 93 | 1011.5 |
| 20260905130519 | 77 | 196 | 0.9 | 3.5 | 0.00 | 0.00 | 0.00 | 93 | 1011.4 |
| 20260905124436 | 77 | 153 | 0.9 | 3.5 | 0.00 | 0.00 | 0.00 | 94 | 1011.1 |
| 20260905123408 | 76 | 193 | 0.0 | 1.7 | 0.00 | 0.00 | 0.00 | 94 | 1011.1 |
| 20260905121301 | 76 | 196 | 0.0 | 0.0 | 0.00 | 0.00 | 0.00 | 93 | 1011.0 |
| 20260905120237 | 76 | 196 | 0.0 | 0.0 | 0.00 | 0.00 | 0.00 | 93 | 1011.0 |
| 20260905114027 | 76 | 205 | 0.9 | 2.6 | 0.00 | 0.00 | 0.00 | 93 | 1010.7 |
| 20260905113018 | 76 | 191 | 0.0 | 1.7 | 0.00 | 0.00 | 0.00 | 92 | 1010.7 |
| 20260905111949 | 76 | 191 | 0.0 | 1.7 | 0.00 | 0.00 | 0.00 | 92 | 1010.6 |
| 20260905110925 | 76 | 191 | 0.0 | 0.0 | 0.00 | 0.00 | 0.00 | 91 | 1010.6 |
| 20260905105906 | 76 | 191 | 0.0 | 1.7 | 0.00 | 0.00 | 0.00 | 91 | 1010.6 |
| 20260905104856 | 76 | 191 | 0.0 | 1.7 | 0.00 | 0.00 | 0.00 | 91 | 1010.5 |
| 20260905101702 | 77 | 167 | 0.9 | 3.5 | 0.00 | 0.00 | 0.00 | 91 | 1010.3 |
| 20260905095541 | 77 | 198 | 0.0 | 0.0 | 0.00 | 0.00 | 0.00 | 91 | 1010.4 |
| 20260905092253 | 77 | 171 | 1.7 | 6.1 | 0.00 | 0.00 | 0.00 | 90 | 1010.2 |
| 20260905090210 | 77 | 167 | 1.7 | 5.2 | 0.00 | 0.00 | 0.00 | 89 | 1010.3 |
| 20260905085227 | 78 | 165 | 1.7 | 5.2 | 0.00 | 0.00 | 0.00 | 89 | 1010.4 |
| 20260905083106 | 78 | 161 | 2.6 | 8.7 | 0.00 | 0.00 | 0.00 | 88 | 1010.4 |
| 20260905075828 | 78 | 170 | 1.7 | 5.2 | 0.00 | 0.00 | 0.00 | 87 | 1010.7 |
| 20260905073706 | 79 | 196 | 1.7 | 6.1 | 0.00 | 0.00 | 0.00 | 86 | 1010.7 |
| 20260905072637 | 79 | 193 | 2.6 | 6.1 | 0.00 | 0.00 | 0.00 | 85 | 1010.9 |
| 20260905071612 | 79 | 123 | 2.6 | 7.8 | 0.00 | 0.00 | 0.00 | 85 | 1010.9 |
| 20260905070543 | 79 | 109 | 2.6 | 7.8 | 0.00 | 0.00 | 0.00 | 85 | 1011.0 |
| 20260905065600 | 79 | 169 | 2.6 | 7.0 | 0.00 | 0.00 | 0.00 | 85 | 1011.0 |
| 20260905064603 | 79 | 179 | 2.6 | 8.7 | 0.00 | 0.00 | 0.00 | 84 | 1011.0 |
| 20260905063622 | 79 | 169 | 1.7 | 8.7 | 0.00 | 0.00 | 0.00 | 84 | 1011.1 |
| 20260905062632 | 79 | 172 | 2.6 | 6.1 | 0.00 | 0.00 | 0.00 | 83 | 1011.1 |
| 20260905061612 | 80 | 175 | 2.6 | 7.8 | 0.00 | 0.00 | 0.00 | 83 | 1011.0 |
| 20260905060608 | 80 | 166 | 2.6 | 7.8 | 0.00 | 0.00 | 0.00 | 82 | 1011.0 |
| 20260905055546 | 80 | 158 | 2.6 | 7.8 | 0.00 | 0.00 | 0.00 | 82 | 1011.0 |
| 20260905054603 | 80 | 142 | 2.6 | 7.0 | 0.00 | 0.00 | 0.00 | 81 | 1011.0 |
| 20260905052447 | 80 | 184 | 2.6 | 5.2 | 0.00 | 0.00 | 0.00 | 80 | 1011.0 |
| 20260905051431 | 80 | 141 | 1.7 | 5.2 | 0.00 | 0.00 | 0.00 | 79 | 1011.1 |
| 20260905050443 | 81 | 139 | 1.7 | 5.2 | 0.00 | 0.00 | 0.00 | 79 | 1011.2 |
| 20260905044322 | 81 | 167 | 2.6 | 7.8 | 0.00 | 0.00 | 0.00 | 78 | 1011.2 |
| 20260905043322 | 81 | 169 | 2.6 | 7.8 | 0.00 | 0.00 | 0.00 | 77 | 1011.2 |
| 20260905042250 | 81 | 155 | 1.7 | 7.0 | 0.00 | 0.00 | 0.00 | 77 | 1011.1 |
| 20260905041250 | 81 | 159 | 1.7 | 6.1 | 0.00 | 0.00 | 0.00 | 76 | 1011.1 |
| 20260905035120 | 81 | 169 | 1.7 | 6.1 | 0.00 | 0.00 | 0.00 | 74 | 1011.1 |
| 20260905034127 | 82 | 175 | 0.9 | 5.2 | 0.00 | 0.00 | 0.00 | 73 | 1011.1 |
| 20260905033058 | 82 | 187 | 1.7 | 6.1 | 0.00 | 0.00 | 0.00 | 73 | 1011.0 |
| 20260905032024 | 82 | 150 | 1.7 | 6.1 | 0.00 | 0.00 | 0.00 | 72 | 1011.1 |
| 20260905031000 | 82 | 198 | 0.9 | 6.1 | 0.00 | 0.00 | 0.00 | 71 | 1010.9 |
| 20260905025928 | 82 | 107 | 0.9 | 5.2 | 0.00 | 0.00 | 0.00 | 70 | 1010.9 |
| 20260905023757 | 83 | 131 | 0.9 | 4.3 | 0.00 | 0.00 | 0.00 | 69 | 1010.5 |
| 20260905022731 | 83 | 121 | 0.9 | 3.5 | 0.00 | 0.00 | 0.00 | 68 | 1010.5 |
| 20260905021706 | 83 | 140 | 0.9 | 3.5 | 0.00 | 0.00 | 0.00 | 68 | 1010.4 |
| 20260905020731 | 84 | 127 | 0.9 | 3.5 | 0.00 | 0.00 | 0.00 | 67 | 1010.3 |
| 20260905015735 | 84 | 143 | 0.9 | 7.0 | 0.00 | 0.00 | 0.00 | 67 | 1010.3 |
| 20260905014754 | 84 | 154 | 1.7 | 7.0 | 0.00 | 0.00 | 0.00 | 66 | 1010.2 |
| 20260905013744 | 85 | 144 | 1.7 | 5.2 | 0.00 | 0.00 | 0.00 | 65 | 1010.1 |
| 20260905012730 | 85 | 107 | 1.7 | 6.1 | 0.00 | 0.00 | 0.00 | 65 | 1010.1 |
| 20260905010557 | 86 | 110 | 3.5 | 7.8 | 0.00 | 0.00 | 0.00 | 63 | 1009.9 |
| 20260905005531 | 87 | 149 | 2.6 | 7.8 | 0.00 | 0.00 | 0.00 | 62 | 1009.8 |
| 20260905003359 | 88 | 182 | 3.5 | 11.3 | 0.00 | 0.00 | 0.00 | 60 | 1009.7 |
| 20260905002326 | 89 | 111 | 4.3 | 11.3 | 0.00 | 0.00 | 0.00 | 59 | 1009.6 |
| 20260905001304 | 90 | 119 | 3.5 | 9.6 | 0.00 | 0.00 | 0.00 | 57 | 1009.4 |
| 20260905000241 | 91 | 173 | 3.5 | 9.6 | 0.00 | 0.00 | 0.00 | 53 | 1009.2 |
| 20260904235247 | 92 | 138 | 2.6 | 7.8 | 0.00 | 0.00 | 0.00 | 50 | 1009.1 |
| 20260904233030 | 93 | 153 | 2.6 | 8.7 | 0.00 | 0.00 | 0.00 | 45 | 1008.9 |
| 20260904232006 | 93 | 213 | 2.6 | 9.6 | 0.00 | 0.00 | 0.00 | 43 | 1009.1 |
| 20260904230931 | 93 | 181 | 3.5 | 9.6 | 0.00 | 0.00 | 0.00 | 43 | 1009.1 |
| 20260904225916 | 94 | 180 | 3.5 | 8.7 | 0.00 | 0.00 | 0.00 | 45 | 1009.3 |
| 20260904223752 | 93 | 229 | 2.6 | 9.6 | 0.00 | 0.00 | 0.00 | 49 | 1009.3 |
| 20260904222732 | 93 | 190 | 3.5 | 9.6 | 0.00 | 0.00 | 0.00 | 48 | 1009.4 |
| 20260904221730 | 93 | 115 | 3.5 | 11.3 | 0.00 | 0.00 | 0.00 | 47 | 1009.4 |
| 20260904220658 | 94 | 170 | 3.5 | 11.3 | 0.00 | 0.00 | 0.00 | 51 | 1009.5 |
| 20260904215633 | 93 | 136 | 4.3 | 9.6 | 0.00 | 0.00 | 0.00 | 53 | 1009.4 |
| 20260904214641 | 94 | 128 | 3.5 | 9.6 | 0.00 | 0.00 | 0.00 | 49 | 1009.5 |
| 20260904212544 | 94 | 133 | 3.5 | 11.3 | 0.00 | 0.00 | 0.00 | 48 | 1009.8 |
| 20260904211543 | 94 | 221 | 4.3 | 11.3 | 0.00 | 0.00 | 0.00 | 48 | 1009.8 |
| 20260904210520 | 92 | 202 | 4.3 | 10.4 | 0.00 | 0.00 | 0.00 | 52 | 1010.0 |
| 20260904203250 | 92 | 191 | 1.7 | 9.6 | 0.00 | 0.00 | 0.00 | 56 | 1010.3 |
| 20260904202259 | 92 | 205 | 2.6 | 9.6 | 0.00 | 0.00 | 0.00 | 56 | 1010.4 |
| 20260904201304 | 92 | 169 | 2.6 | 9.6 | 0.00 | 0.00 | 0.00 | 58 | 1010.5 |
| 20260904200300 | 90 | 171 | 1.7 | 7.0 | 0.00 | 0.00 | 0.00 | 60 | 1010.6 |
| 20260904195323 | 90 | 173 | 1.7 | 6.1 | 0.00 | 0.00 | 0.00 | 61 | 1010.8 |
| 20260904185804 | 88 | 126 | 2.6 | 8.7 | 0.00 | 0.00 | 0.00 | 67 | 1011.3 |
| 20260904184759 | 87 | 123 | 2.6 | 8.7 | 0.00 | 0.00 | 0.00 | 67 | 1011.4 |